Overview Statistics Trail Chart Weather Telemetry Raw packets
 

This is the latest recevied weather packets stored in our database for station/object G0TQM-11. If no packets are shown the sender has not sent any weather packets the latest 10 day(s).

<< 15 16 17 18 19 20 21 >>
Time Temp. Humidity Pressure Rain* Wind** Luminosity Snow
1788199306 20° C 51% 1013.2 hPa - - - -
1788198106 20.56° C 50% 1013 hPa - - - -
1788196906 20.56° C 49% 1012.8 hPa - - - -
1788195706 20.56° C 51% 1012.6 hPa - - - -
1788194505 21.11° C 52% 1012.4 hPa - - - -
1788193305 21.11° C 52% 1012.4 hPa - - - -
1788192105 21.11° C 52% 1012.4 hPa - - - -
1788190905 20.56° C 53% 1012.2 hPa - - - -
1788189705 20.56° C 53% 1012 hPa - - - -
1788188505 21.11° C 51% 1011.8 hPa - - - -
1788187305 21.67° C 53% 1011.5 hPa - - - -
1788186104 21.67° C 52% 1011.3 hPa - - - -
1788184904 20.56° C 54% 1011.2 hPa - - - -
1788183703 20.56° C 54% 1011 hPa - - - -
1788182512 20.56° C 56% 1010.7 hPa - - - -
1788181311 21.11° C 55% 1010.6 hPa - - - -
1788178911 21.11° C 56% 1009.9 hPa - - - -
1788177711 21.11° C 57% 1009.6 hPa - - - -
1788176511 20.56° C 57% 1009.3 hPa - - - -
1788175311 21.11° C 58% 1009 hPa - - - -
1788174111 20.56° C 60% 1008.5 hPa - - - -
1788172910 20.56° C 61% 1008.2 hPa - - - -
1788171710 20.56° C 62% 1007.8 hPa - - - -
1788170510 20.56° C 64% 1007.3 hPa - - - -
1788169310 20.56° C 63% 1006.9 hPa - - - -

* Rain since midnight (hover to see other rain measurements)
** Current wind speed in m/s (hover to see current wind gust speed)